Regional Weather Roundup
Issued by NWS Lake Charles, LA

Home | Current Version | Previous Version | Text Only | Print | Product List | Glossary On
Versions: 1 2 3 4 5 6 7 8 9 10 11 12 13 14 15 16 17 18 19 20 21 22 23 24 25 26 27 28 29 30 31 32 33 34 35 36 37 38 39 40 41 42 43 44 45 46 47 48 49 50
000
ASUS44 KLCH 210210
RWRLCH
RWRLCH
REGIONAL WEATHER ROUNDUP
NATIONAL WEATHER SERVICE LAKE CHARLES LA
900 PM CDT WED AUG 20 2014

Note: "fair" indicates few or no clouds below 12,000 feet with no
significant weather and/or obstructions to visibility.


ACROSS SOUTHEAST TEXAS

CITY           SKY/WX    TMP DP  RH WIND       PRES   REMARKS
BEAUMONT       MOCLDY    84  75  74 S10       30.01R
BEAUMONT CITY    N/A     81  76  84 E3        30.02S
ORANGE         CLOUDY    83  77  81 SE6       30.03S
JASPER         CLOUDY    73  71  95 E3        30.04S
$$

ACROSS CENTRAL LOUISIANA

CITY           SKY/WX    TMP DP  RH WIND       PRES   REMARKS
LEESVILLE      CLOUDY    75  73  93 SE3       30.02F
FULLERTON        N/A     77  73  87 CALM      30.00F
ALEXANDRIA INT CLOUDY    77  72  84 SE7       30.01S
ESLER FIELD    CLOUDY    77  73  87 S3        30.03F
DERIDDER         N/A     78  74  86 CALM      30.04R
OAKDALE        CLOUDY    75  73  95 CALM      30.03S
OPELOUSAS        N/A     98 N/A N/A E5        30.05R
$$

ACROSS SOUTHWEST AND SOUTH CENTRAL LOUISIANA

CITY           SKY/WX    TMP DP  RH WIND       PRES   REMARKS
SULPHUR        CLOUDY    81  73  78 SE8       30.03S
LAKE CHARLES   CLOUDY    78  73  84 SE7       30.02F
CHENNAULT INT  CLEAR     79  72  78 SE5       30.03F
CAMERON PHI    CLEAR     86  77  74 S13       30.03S
DEQUINCY         N/A     79  76  92 SE8       30.02R
JENNINGS       LGT RAIN  74  73  96 CALM      30.03S
LAFAYETTE      CLOUDY    78  75  90 CALM      30.05S
NEW IBERIA     CLOUDY    80  76  87 E5        30.06S
ABBEVILLE        N/A     76  75  98 CALM      30.05S
PATTERSON      CLOUDY   N/A N/A N/A MISG        N/A
SALT POINT       N/A     81  77  88 CALM      30.05F
$$

SELECTED SITES ACROSS THE REGION

CITY           SKY/WX    TMP DP  RH WIND       PRES   REMARKS
HOUSTON BUSH   MOCLDY    84  75  74 S7        29.99R
HOUSTON HOBBY  MOCLDY    84  76  76 S9        29.99R
GALVESTON      CLEAR     86  78  77 S15       30.01R
COLLEGE STAT   PTCLDY    82  73  74 SE13      29.95R
CONROE         PTCLDY    77  74  90 SE7       30.00R
HUNTSVILLE     CLEAR     81  73  76 VRB6      29.98R
LUFKIN         MOCLDY    78  72  81 SE8       30.00R
SHREVEPORT     PTCLDY    80  67  64 S6        29.99S
MONROE         PTCLDY    83  73  72 S7        30.00F
NATCHEZ MS     CLOUDY    81  72  74 S6        30.07R
BATON ROUGE    CLOUDY    79  74  84 S3        30.07S
N.O. INTL ARPT MOCLDY    80  71  74 SW7       30.07R
SLIDELL        MOCLDY    83  74  74 CALM      30.07R
$$

MARINE REPORTS

STATION/POSITION TIME  TEMP    WIND        PRES    VSBY  WAVE
                       AIR SEA DIR/SP/G                  HT/PER
                 (UTC) (F)     (DEG/KT/KT) (MB)    (MI)  (FT/S)
BUOY 30 S HIGH I NOT AVBL
SEA RIM ST PARK  0100   86     160/ 13/ 15 1016.8R
PORT ARTHUR      0200      88  160/  5/  8 1016.4S
SABINE PASS N    0200   86 87  170/  8/ 12 1016.6R
TEXAS POINT      0200   85 87  160/ 13/ 15 1016.6R
CALCASIEU PASS   0200   86 87  180/ 10/ 13 1017.9S
LK CHARLES BEACH 0200   80 86              1017.3S
MARSH ISLAND     0100   86     190/  5/  9   N/A
FRESH WATER LOCK 0200   84 87  150/  8/ 10 1017.5R
AMERADA PASS     0200   77 87   CALM  /  4 1017.9R
$$


USA.gov is the U.S. government's official web portal to all federal, state and local government web resources and services.